Regional Weather Roundup
Issued by NWS

Home | Current Version | Previous Version | Graphics & Text | Print | Product List | Glossary On
Versions: 1 2 3 4 5 6 7 8 9 10 11 12 13 14 15 16 17 18 19 20 21 22 23 24 25 26 27 28 29 30 31 32 33 34 35 36 37 38 39 40 41 42 43 44 45 46 47 48 49 50
000
ASUS43 KBIS 310102
RWRND

NORTH DAKOTA REGIONAL WEATHER ROUNDUP
NATIONAL WEATHER SERVICE BISMARCK ND
800 PM CDT SUN AUG 30 2015

NOTE: "FAIR" INDICATES FEW OR NO CLOUDS BELOW 12,000 FEET WITH NO
SIGNIFICANT WEATHER AND/OR OBSTRUCTIONS TO VISIBILITY.


NDZ001>003-009>011-017-310200-
NORTHWEST NORTH DAKOTA

CITY           SKY/WX    TMP DP  RH WIND       PRES   REMARKS
WILLISTON      PTCLDY    77  47  34 NE3       29.71S
MINOT          MOCLDY    79  58  48 W7        29.66R HAZE
MINOT AFB      MOCLDY    82  56  40 NW9       29.65R
$$

NDZ018>021-031>035-040>046-310200-
SOUTHWEST NORTH DAKOTA

CITY           SKY/WX    TMP DP  RH WIND       PRES   REMARKS
BISMARCK       PTCLDY    88  65  46 NE3       29.62F HX  90
DICKINSON      MOCLDY    78  52  40 N6        29.72  HAZE
GARRISON         N/A     77  58  51 N8        29.67S
HETTINGER ARPT PTCLDY    80  52  37 N7        29.72F
$$

NDZ004>008-012>016-024-026-027-054-310200-
NORTHEAST NORTH DAKOTA

CITY           SKY/WX    TMP DP  RH WIND       PRES   REMARKS
GRAND FORKS    CLOUDY    81  69  67 S16G23    29.65S
GRND FRKS AFB  MOCLDY    81  70  70 S14       29.66S
DEVILS LAKE    PTCLDY    81  66  61 S14       29.62S
$$

NDZ022-023-025-028>030-036>039-047>053-310200-
SOUTHEAST NORTH DAKOTA

CITY           SKY/WX    TMP DP  RH WIND       PRES   REMARKS
FARGO          MOCLDY    81  68  64 SE15G26   29.71S
JAMESTOWN      PTCLDY    78  68  71 S10       29.67F
$$




USA.gov is the U.S. government's official web portal to all federal, state and local government web resources and services.